www.pogodaiklimat.ru

Погода и климат >> Архив погоды >> Россия >> Ямало-Ненецкий АО >> Белоярск


ПОГОДА в Белоярске

  • Прогноз погоды в Белоярске
  • Монитор погоды в Белоярске

АРХИВ ПОГОДЫ в Белоярске

Время (UTC), дата Ветер
(напр.,м/с)
 
Видим.   Явления Облачность Т
(С)
Тd
(С)
f
(%)
Тe
(С)
Тes
(С)
Комфортность P
(гПа)
Po
(гПа)
Тmin
(С)
Tmax
(С)
R
(мм)
R24
(мм)
S
(см)
18 10.02 В 6
{11}
н/о н/о -21.8 -24.6 78 -33 -33 опасность
обморожения
1014.6 1009.7
21 10.02 В 5
{10}
н/о н/о -20.5 -23.3 78 -31 -31 опасность
обморожения
1013.8 1009.0
00 11.02 В 5
{11}
н/о н/о -19.0 -21.7 79 -29 -29 1013.3 1008.6
03 11.02 В 6
{11}
н/о н/о -17.8 -20.5 79 -28 -28 1013.3 1008.6 -23.0
06 11.02 В 6
{10}
н/о н/о -17.3 -19.8 81 -27 -27 1012.6 1007.9
09 11.02 В 6 н/о н/о -15.4 -17.8 82 -25 -25 1012.1 1007.5
12 11.02 В 7
{11}
н/о н/о -14.4 -16.9 81 -25 -25 1011.3 1006.6
15 11.02 В 7
{11}
н/о н/о -13.7 -16.0 83 -24 -24 1011.3 1006.7 -13.8
18 11.02 ЮВ 5
{11}
н/о н/о -13.3 -15.2 86 -22 -22 1011.4 1006.8
21 11.02 ЮВ 5 н/о н/о -11.4 -13.3 86 -19 -19 1010.7 1006.1
00 12.02 ЮВ 3 н/о н/о -10.2 -11.6 89 -16 -16 1010.5 1005.9
03 12.02 ЮЗ 2 н/о н/о -9.2 -10.4 91 -14 -14 1010.3 1005.7 -13.8
06 12.02 ЮЗ 4 н/о н/о -9.9 -11.1 91 -17 -17 1010.4 1005.8
09 12.02 ЮЗ 3 н/о н/о -9.4 -11.1 87 -15 -15 1011.0 1006.4
12 12.02 З 3 н/о н/о -10.1 -11.9 87 -16 -16 1012.1 1007.5
15 12.02 З 4 н/о н/о -11.7 -13.1 89 -19 -19 1013.0 1008.4 -9.0
18 12.02 ЮЗ 4 н/о н/о -10.1 -11.7 88 -17 -17 1013.0 1008.4
21 12.02 ЮЗ 4 н/о н/о -11.8 -12.8 92 -19 -19 1012.9 1008.3
00 13.02 ЮЗ 3 н/о н/о -10.7 -11.6 93 -17 -17 1012.3 1007.7
06 13.02 Ю 6 н/о н/о -9.9 -10.6 95 -19 -19 1010.0 1005.5
09 13.02 ЮЗ 3 н/о н/о -9.5 -10.6 92 -15 -15 1008.9 1004.3
12 13.02 ЮЗ 3 н/о н/о -9.8 -11.1 90 -16 -16 1008.3 1003.7
15 13.02 ЮЗ 5 н/о н/о -7.4 -8.1 95 -15 -15 1007.8 1003.3 -7.5
18 13.02 ЮЗ 4 н/о н/о -6.7 -7.0 98 -14 -14 1007.1 1002.6
21 13.02 ЮЗ 5
{10}
н/о н/о -6.4 -6.4 100 -14 -14 1006.3 1001.8
00 14.02 ЮЗ 3 н/о н/о -8.8 -8.9 99 -15 -15 1006.2 1001.7
03 14.02 ЮЗ 3 н/о н/о -9.2 -9.2 100 -15 -15 1004.9 1000.4 -9.9
09 14.02 З 3 н/о н/о -6.0 -6.0 100 -12 -12 998.8 994.4
15 14.02 В 6
{13}
н/о н/о -11.4 -12.1 95 -20 -20 1000.2 995.7 -5.0 3
18 14.02 В 10
{15}
н/о н/о -15.5 -18.1 80 -28 -28 1003.1 998.4
21 14.02 В 7
{13}
н/о н/о -17.0 -20.2 76 -28 -28 1006.3 1001.6
00 15.02 З 2 н/о н/о -20.6 -23.5 77 -27 -27 1009.1 1004.3
03 15.02 СЗ 4 н/о н/о -21.8 -24.8 77 -31 -31 опасность
обморожения
1011.3 1006.5 -23.2 0.5
06 15.02 З 1 н/о н/о -20.0 -23.1 76 -23 -23 1012.4 1007.7 -23.6
09 15.02 ЮЗ 2 н/о н/о -21.1 -24.0 77 -27 -27 1013.1 1008.3
12 15.02 ЮЗ 3 н/о н/о -22.6 -24.9 81 -31 -31 опасность
обморожения
1012.9 1008.0
15 15.02 Ю 4 н/о н/о -24.8 -27.4 79 -35 -35 опасность
обморожения
1012.4 1007.6 -19.7
18 15.02 Ю 3 н/о н/о -25.3 -28.0 78 -34 -34 опасность
обморожения
1011.9 1007.0
21 15.02 Ю 3 н/о н/о -23.2 -25.7 80 -31 -31 опасность
обморожения
1011.0 1006.2
00 16.02 Ю 2 н/о н/о -26.8 -29.7 76 -34 -34 опасность
обморожения
1009.8 1004.9
03 16.02 Ю 1 н/о н/о -27.0 -30.0 76 -31 -31 опасность
обморожения
1009.0 1004.1 -29.6
06 16.02 Ю 1 н/о н/о -28.9 -32.1 74 -33 -33 опасность
обморожения
1007.8 1002.9 -31.3
09 16.02 штиль 0 н/о н/о -28.7 -31.8 75 -29 -29 1006.6 1001.7
12 16.02 ЮВ 1 н/о н/о -29.8 -33.0 74 -34 -34 опасность
обморожения
1005.4 1000.4
15 16.02 ЮВ 2 н/о н/о -27.5 -30.5 75 -35 -35 опасность
обморожения
1003.1 998.2 -27.0

 

Местоположение метеостанции Белоярск (Ямало-Ненецкий АО, Россия): широта 66.87 долгота 68.13 высота над уровнем моря 35 м.

В архиве по умолчанию представлена погода в Белоярске за последнюю неделю. Архивные данные за месяц целиком и за предыдущие месяцы, начиная с января 2011 года, Вы можете получить, выбрав интересующий диапазон дат из раскрывающегося списка и нажав кнопку "Ввод!".


*Определитесь, кто Вы:
робот инопланетянин человек

Внимание! Время в таблицах - всемирное. Для получения местного времени необходимо прибавить поправку, которая равна 5 ч.

Смотрите также архив погоды в соседних городах и на ближайших метеорологических станциях:

Погода в Салехарде (Ямало-Ненецкий АО, Россия) (75 км)
Погода в Полуе (Ямало-Ненецкий АО, Россия) (97 км)
Погода в Харпе (Ямало-Ненецкий АО, Россия) (103 км)
Погода в Питляре (Ямало-Ненецкий АО, Россия) (152 км)
Погода в Елецкой (Коми, Россия) (178 км)
Погода в Воркуте (Коми, Россия) (192 км)
Погода в Ныде (Ямало-Ненецкий АО, Россия) (212 км)
Погода в Новом Порте (Ямало-Ненецкий АО, Россия) (223 км)
Погода в Мужах (Ямало-Ненецкий АО, Россия) (226 км)
Погода в Надыме (Ямало-Ненецкий АО, Россия) (257 км)

Пояснения к столбцам:

Ветер - указаны скорость ветра в м/с - средняя за 10 мин, порывы в срок и между сроками (в фигурных скобках) и направление, откуда дует ветер: С - северный, СВ - северо-восточный, В - восточный, ЮВ - юго-восточный, Ю - южный, ЮЗ - юго-западный, З - западный, СЗ - северо-западный.
Видимость - горизонтальная дальность видимости в метрах или километрах. При видимости от 1 до 10 км при отсутствии осадков обычно наблюдается дымка, при ухудшении видимости до 1 км и менее - туман. В сухую погоду видимость может ухудшаться дымом, пылью или мглою.
Явления - указаны атмосферные явления, наблюдавшиеся в срок или в последний час перед сроком; фигурными скобками обозначены явления, наблюдавшиеся между сроками (за 1-3 часа до срока); квадратными скобками обозначены град или гололедные отложения с указанием их диаметра в мм.
Облачность - указаны через наклонную черту общая и нижняя облачность в баллах и высота нижней границы облаков в метрах; квадратными скобками обозначены формы облаков: Ci - перистые, Cs - перисто-слоистые, Cc - перисто-кучевые, Ac - высококучевые, As - высокослоистые, Sc - слоисто-кучевые, Ns - слоисто-дождевые, Cu - кучевые, Cb - кучево-дождевые. Подробнее классификацию облаков см. в Атласе облаков (PDF).
T - Температура воздуха - температура, измеренная на высоте 2 м над землей.
Td - Температура точки росы - температура, при понижении до которой содержащийся в воздухе водяной пар достигнет насыщения.
f - Относительная влажность воздуха - влажноcть воздуха, измеренная на высоте 2 м над землей.
Te - Эффективная температура - температура, которую ощущает одетый по сезону человек в тени. Характеристика душности погоды. При расчете учитывается влияние влажности воздуха и скорости ветра на теплоощущения человека.
Tes - Эффективная температура на солнце - температура, которую ощущает человек, с поправкой на солнечный нагрев. Характеристика знойности погоды. Зависит от высоты солнца над горизонтом, облачности и скорости ветра. Ночью, в пасмурную погоду, а также при ветре 12 м/с и более поправка равна нулю.
P - Атмосферное давление - приведенное к уровню моря атмосферное давление.
Po - Атмосферное давление - измеренное на уровне метеостанции атмосферное давление.
Tmin - Минимальная температура - минимум температуры воздуха на высоте 2 м над землей.
Tmax - Максимальная температура - максимум температуры воздуха на высоте 2 м над землей.
R - Количество осадков - Количество выпавших осадков за период времени, мм. При наведении курсора мыши на число - период времени, за который выпало указанное количество осадков.
R24 - Количество осадков - Количество выпавших осадков за 24 часа, мм.
S - Снежный покров - Высота снежного покрова, см. При наведении курсора мыши на число - состояние снежного покрова и степень покрытия местности в баллах.